Simultaneous Nadir Overpasses (SNOs) Predictions

Prediction of SNOs between METOP-A and TERRA Satellite Orbit:

Table of predicted SNOs for the next 14.0 days since TLE Epoch: 6/9/2018
Index Date (METOP-A) Time (METOP-A) Lat,Lon (METOP-A) SZA (METOP-A ) Date (TERRA) Time (TERRA) Lat,Lon (TERRA) SZA (TERRA ) Distance(km) Time Diff (sec)
1 06/09/2018 08:07:32 -81.42, -72.63 118.37 06/09/2018 08:08:39 -81.42, -72.56 118.33 1.23 67
2 06/09/2018 08:58:12 81.42, 95.10 61.68 06/09/2018 08:58:05 81.42, 95.21 61.69 2.02 7
3 06/12/2018 03:41:48 -81.42, -6.08 118.58 06/12/2018 03:42:54 -81.43, -5.96 118.53 2.34 66
4 06/12/2018 04:32:29 81.42, 161.23 61.42 06/12/2018 04:32:21 81.41, 161.39 61.43 2.59 8
5 06/14/2018 23:16:06 -81.42, 60.05 118.78 06/14/2018 23:17:11 -81.42, 60.25 118.73 3.26 65
6 06/15/2018 00:06:45 81.42,-131.85 61.31 06/15/2018 00:06:37 81.42,-132.04 61.29 3.25 8
7 06/17/2018 18:50:22 -81.42, 126.97 118.84 06/17/2018 18:51:27 -81.42, 126.85 118.82 2.24 65
8 06/17/2018 19:41:03 81.42, -65.74 61.16 06/17/2018 19:40:54 81.41, -65.86 61.14 2.25 9
9 06/20/2018 14:24:40 -81.42,-166.91 118.94 06/20/2018 14:25:44 -81.41,-166.94 118.91 0.57 64




NCC Satellite Simultaneous Nadir Overpasses (SNOs) Prediction Service
